Погода в Яшкуле

Погода в Яшкуле : погода сейчас, прогноз погоды и архив. Всё, что Вы хотите узнать о погоде в Яшкуле!

Хотите узнать прогноз погоды в Яшкуле? Тогда Вам сюда: Погода в Яшкуле

Поиск расширенной информации на нашем сайте:

Другие новости

Новости СМИ2

Главная страница сайта

Новости сайта

03.07.2017

Напоминаем, что на нашем специализированном сайте Метеоцентр.Азия вы можете получить высокодетализированные автоматические прогнозы погоды по пунктам России, СНГ и мира в авиационном формате (включающие направление и скорость ветра, видимость, явления погоды, количество и форму облачности, нижнюю и верхнюю границу облачности).

Рекомендуем: Одн-2003 - противогололедные материалы.

Погода в Яшкуле - сегодня

Время (UTC), дата Ветер
(°,м/с) 
Видим.   Явления Облачность Т
(°С)
Тd
(°С)
f(%) Тe
(°С)
Pmin
(гПа)
dP
(гПа)
Po
(мм)
O2
(г/м3)
Тmin Tmax R s Состояние
почвы
09 19.07.17 210 (ЮЗ) 20000 м    4/3 1000 м верхняя 
[Cu hum|Ci fib]
+35.7 +12.3 24 +40  1007  -1.5  756  267           
12 19.07.17 150 (ЮВ) 20000 м    6/3 1000 м средняя, верхняя 
[Cu hum|Ac trans|Ci fib]
+37.9 +12.7 22 +43  1005.8  -1.2  755  265           
15 19.07.17 100 (В) 7-12  20000 м    4/3 1000 м средняя 
[Cu hum|Ac trans]
+33.6 +13.3 29 +39  1005.9  0.2  755  268    +38.3       
18 19.07.17 120 (ЮВ) 5{12}  20000 м    6/0 средняя, верхняя 
[Ac trans|Ci fib]
+29.9 +12.7 35 +35  1007.3  1.4  756  272           
21 19.07.17 030 (СВ) 20000 м    8/0 средняя 
[Ac trans]
+26.7 +13.9 45 +33  1006.9  -0.3  756  275           
00 20.07.17 100 (В) 20000 м    8/0 средняя 
[Ac trans]
+24.1 +15.2 58 +33  1006.1  -0.9  755  276           
03 20.07.17 тихо ()   20000 м    3/0 средняя 
[Ac trans]
+24.9 +15.8 57 +35  1006.7  0.6  756  276  +22.5        сухая 
06 20.07.17 270 (З) 20000 м    ясно 
+30.2 +14.4 38 +38  1007  0.3  756  271           
09 20.07.17 200 (Ю) 20000 м    ясно 
+35.3 +13.2 27 +41  1006.1  -0.9  755  267           
12 20.07.17 210 (ЮЗ) 3{10}  20000 м    6/5 1000 м верхняя 
[Cu hum|Ci fib]
+38.5 +10.7 19 +40  1004.2  -1.8  754  264           
15 20.07.17 160 (Ю) 20000 м    8/3 600 м кучево-дожд., средняя, верхняя 
[Cb calv|Ac trans|Ci fib]
+37.9 +6.9 15 +38  1003.5  -0.8  753  265    +39.9       
18 20.07.17 300 (СЗ) 5{11}  20000 м    10/8 600 м кучево-дожд., средняя 
[Cb calv|Ac As]
+25.8 +17.2 59 +38  1007.6  4.2  756  275           
21 20.07.17 320 (СЗ) 1{12}  20000 м  в посл. час ливневой дождь  8/3 600 м кучево-дожд., средняя 
[Cb calv|Ac trans]
+26 +16.8 57 +38  1006.2  -1.4  755  274           
00 21.07.17 330 (СЗ) 20000 м  {ливн. осадки}  8/4 600 м кучево-дожд., средняя 
[Cb calv|Ac trans]
+25.5 +14.9 52 +34  1006.7  -1.4  756  275           
03 21.07.17 300 (СЗ) 20000 м  {ливн. осадки}  6/6 600 м кучево-дожд. 
[Cb calv]
+24.6 +15.9 58 +35  1008.5  1.8  757  276  +23.8    0.5     
06 21.07.17 300 (СЗ) 20000 м    6/0 средняя, верхняя 
[Ac trans|Ci fib]
+30 +14.6 39 +38  1009.8  1.3  758  272           
09 21.07.17 300 (СЗ) 8-12{15}  20000 м    8/0 средняя 
[Ac trans]
+30.9 +12.5 32 +35  1010.4  0.6  758  272           
12 21.07.17 290 (З) 5{13}  20000 м    8/0 средняя 
[Ac trans]
+34 +11.6 26 +37  1010  -0.5  758  270           
15 21.07.17 290 (З) 20000 м    6/0 средняя 
[Ac trans]
+32 +12.4 30 +36  1010.4  0.4  758  271    +34.7       
18 21.07.17 300 (СЗ) 20000 м    ясно 
+27 +14.3 46 +34  1012  1.6  760  276           
21 21.07.17 300 (СЗ) 20000 м    ясно 
+22.9 +15.2 62 +32  1012.2  0.2  760  279           
00 22.07.17 290 (З) 20000 м    ясно 
+21.2 +14.4 65 +29  1012.4  0.2  760  281           
03 22.07.17 360 (С) 20000 м    ясно 
+22.7 +14.6 60 +30  1013.1  0.2  760  280  +20.1        сухая 
06 22.07.17 020 (С) 20000 м    ясно 
+30.4 +14.6 38 +38  1013.3  0.2  761  273           
09 22.07.17 040 (СВ) 20000 м    ясно 
+33.3 +12.5 28 +38  1012.3  -1  760  271           
Время (UTC), дата Ветер
(°,м/с) 
Видим.   Явления Облачность Т
(°С)
Тd
(°С)
f(%) Тe
(°С)
Pmin
(гПа)
dP
(гПа)
Po
(мм)
O2
(г/м3)
Тmin Tmax R s Состояние
почвы

Для получения пояснительной информации подведите курсор к названию столбца.

ПОГОДА в Яшкуле - архив

Всё, что Вы хотите узнать о погоде в Яшкуле - удобно и подробно!

Выберите нужную дату (начиная с 1 января 2015* года) и нажмите кнопку "Найти".
Будут отображены архивные сводки погоды по пункту Яшкуль, начиная с указанной даты.


Отображать данные в формате CSV (для использования в таблицах Excel)


Внимание! Наш архив погоды предназначен исключительно для личного некоммерческого использования в познавательных целях. Если Вам необходимы официальные справки о состоянии погоды (для производственных, юридических, коммерческих и т.п. целей), обращайтесь в органы Росгидромета.

*Примечание: данная дата относится к архиву по метеостанциям СССР (Россия, СНГ, Балтия).
Архив по метеостанциям Зарубежной Европы и Азии (кроме Китая) хранится 10 дней, по другим регионам земного шара (Китай, Африка, Америка, Австралия, Океания) - 1 день.

Яшкуль - район местоположения метеостанции


Название, широта, долгота, высота метеостанции:
Яшкуль 46.2°ш. 45.3°д. -7 м над ур. моря [Российская Федерация]

Дополнительная информация

В oтличие oт бoльшинства пoгoдных сайтoв мы публикуем пoдрoбную метеoинфoрмацию в детальнoм прoфессиoнальнoм фoрмате.

Характеристики температуры и влажнoсти вoздуха измеряются на высoте 2 м в тени вдали oт зданий и деревьев.
Скoрoсть ветра измеряется на высoте 10 м (на урoвне рoста челoвека скoрoсть ветра ниже в 1.5-2 раза). Если метеoстанция нахoдится в гoрoде или в лесу, тo скoрoсть ветра занижена на 2-4 м/с пo сравнению с oткрытым местoм. Скoрoсть ветра над акватoриями крупных рек и oзёр, а также на вершинах хoлмoв на 2-5 м/с выше, чем в oбычных услoвиях.
Атмoсфернoе давление в разных тoчках местнoсти мoжет значительнo oтличаться oт давления на метеoстанции, в зависимoсти oт услoвий рельефа (при пoдъёме на 10 м давление пoнижается примернo на 1 мм рт.ст.).